Time,TemperatureF,DewpointF,PressureIn,WindDirection,WindDirectionDegrees,WindSpeedMPH,WindSpeedGustMPH,Humidity,HourlyPrecipIn,Conditions,Clouds,dailyrainin,SolarRadiationWatts/m^2,SoftwareType,DateUTC
2013-08-23 00:12:00,72.0,47.0,-100.00,ENE,64,14.0,19.0,40,-99.99,,,-99.99,0.000000,,2013-08-23 06:12:00,
2013-08-23 00:42:00,71.0,49.0,-100.00,East,80,15.0,22.0,45,-99.99,,,-99.99,0.000000,,2013-08-23 06:42:00,
2013-08-23 01:42:00,71.0,49.0,30.23,ENE,69,15.0,21.0,44,-99.99,,,-99.99,0.000000,,2013-08-23 07:42:00,
2013-08-23 02:42:00,68.0,52.0,30.21,NE,49,20.0,24.0,55,-99.99,,,-99.99,0.000000,,2013-08-23 08:42:00,
2013-08-23 03:43:00,68.0,52.0,30.21,NE,43,14.0,19.0,57,-99.99,,,-99.99,0.000000,,2013-08-23 09:43:00,
2013-08-23 04:13:00,68.0,51.0,-100.00,NNE,30,11.0,16.0,55,-99.99,,,-99.99,0.000000,,2013-08-23 10:13:00,
2013-08-23 04:42:00,67.0,51.0,-100.00,NE,46,12.0,16.0,56,-99.99,,,-99.99,0.000000,,2013-08-23 10:42:00,
2013-08-23 05:42:00,64.0,52.0,-100.00,NE,49,13.0,16.0,63,-99.99,,,-99.99,0.000000,,2013-08-23 11:42:00,
2013-08-23 05:53:00,65.0,52.0,-100.00,NE,46,14.0,18.0,62,-99.99,,,-99.99,0.000000,,2013-08-23 11:53:00,
2013-08-23 06:11:00,66.0,51.0,-100.00,NE,42,15.0,18.0,58,-99.99,,,-99.99,0.000000,,2013-08-23 12:11:00,
2013-08-23 06:42:00,66.0,51.0,-100.00,NE,43,12.0,15.0,59,-99.99,,,-99.99,0.000000,,2013-08-23 12:42:00,
2013-08-23 07:12:00,66.0,51.0,-100.00,NE,46,12.0,14.0,59,-99.99,,,-99.99,4.880000,,2013-08-23 13:12:00,
2013-08-23 08:12:00,68.0,51.0,-100.00,NE,48,11.0,14.0,56,-99.99,,,-99.99,97.629997,,2013-08-23 14:12:00,
2013-08-23 08:42:00,69.0,52.0,-100.00,NE,50,12.0,16.0,53,-99.99,,,-99.99,232.910004,,2013-08-23 14:42:00,
2013-08-23 08:52:00,70.0,52.0,-100.00,NE,56,12.0,16.0,52,-99.99,,,-99.99,299.850006,,2013-08-23 14:52:00,
2013-08-23 09:01:00,70.0,52.0,-100.00,NE,56,12.0,16.0,52,-99.99,,,-99.99,299.850006,,2013-08-23 15:01:00,
2013-08-23 09:44:00,71.0,52.0,-100.00,ENE,68,11.0,16.0,50,-99.99,,,-99.99,543.919983,,2013-08-23 15:44:00,
2013-08-23 10:13:00,72.0,52.0,-100.00,ENE,70,11.0,17.0,49,-99.99,,,-99.99,451.170013,,2013-08-23 16:13:00,
2013-08-23 10:42:00,73.0,52.0,-100.00,ENE,73,9.0,16.0,48,-99.99,,,-99.99,592.729980,,2013-08-23 16:42:00,
2013-08-23 10:53:00,73.0,52.0,-100.00,ENE,73,11.0,15.0,47,-99.99,,,-99.99,574.599976,,2013-08-23 16:53:00,
2013-08-23 11:04:00,73.0,52.0,-100.00,ENE,73,11.0,15.0,47,-99.99,,,-99.99,574.599976,,2013-08-23 17:04:00,
2013-08-23 11:13:00,73.0,52.0,-100.00,ENE,73,11.0,15.0,47,-99.99,,,-99.99,574.599976,,2013-08-23 17:13:00,
2013-08-23 11:24:00,72.0,52.0,-100.00,East,82,11.0,19.0,48,-99.99,,,-99.99,322.170013,,2013-08-23 17:24:00,
2013-08-23 11:43:00,72.0,52.0,-100.00,ENE,72,8.0,15.0,49,-99.99,,,-99.99,392.600006,,2013-08-23 17:43:00,
2013-08-23 12:12:00,75.0,52.0,-100.00,ENE,72,9.0,14.0,44,-99.99,,,-99.99,744.750000,,2013-08-23 18:12:00,
2013-08-23 12:52:00,78.0,49.0,30.24,East,81,18.0,32.0,37,-99.99,,,-99.99,881.429993,,2013-08-23 18:52:00,
2013-08-23 13:12:00,78.0,50.0,30.23,ENE,78,21.0,29.0,37,-99.99,,,-99.99,882.130005,,2013-08-23 19:12:00,
2013-08-23 13:22:00,78.0,49.0,30.22,East,87,26.0,35.0,36,-99.99,,,-99.99,840.289978,,2013-08-23 19:22:00,
2013-08-23 13:42:00,78.0,49.0,30.21,East,86,25.0,34.0,36,-99.99,,,-99.99,863.299988,,2013-08-23 19:42:00,
2013-08-23 13:52:00,78.0,49.0,30.22,East,84,21.0,31.0,36,-99.99,,,-99.99,848.650024,,2013-08-23 19:52:00,
2013-08-23 14:12:00,77.0,49.0,30.21,East,82,21.0,31.0,36,-99.99,,,-99.99,513.239990,,2013-08-23 20:12:00,
2013-08-23 14:42:00,79.0,48.0,30.21,East,84,17.0,32.0,33,-99.99,,,-99.99,811.700012,,2013-08-23 20:42:00,
2013-08-23 15:44:00,80.0,47.0,30.18,East,96,16.0,31.0,31,-99.99,,,-99.99,587.849976,,2013-08-23 21:44:00,
2013-08-23 16:13:00,79.0,48.0,30.16,East,88,24.0,34.0,33,-99.99,,,-99.99,481.160004,,2013-08-23 22:13:00,
2013-08-23 16:43:00,79.0,48.0,30.16,East,95,20.0,28.0,34,-99.99,,,-99.99,143.649994,,2013-08-23 22:43:00,
2013-08-23 16:53:00,79.0,47.0,-100.00,East,90,20.0,28.0,32,-99.99,,,-99.99,469.309998,,2013-08-23 22:53:00,
2013-08-23 17:03:00,79.0,47.0,-100.00,East,90,20.0,28.0,32,-99.99,,,-99.99,469.309998,,2013-08-23 23:03:00,
2013-08-23 17:43:00,79.0,46.0,30.14,East,92,23.0,31.0,31,-99.99,,,-99.99,123.430000,,2013-08-23 23:43:00,
2013-08-23 18:22:00,75.0,50.0,30.10,ENE,78,37.0,47.0,41,-99.99,,,-99.99,105.989998,,2013-08-24 00:22:00,
2013-08-23 18:43:00,73.0,52.0,30.13,ENE,62,24.0,35.0,48,-99.99,,,-99.99,126.220001,,2013-08-24 00:43:00,
2013-08-23 19:42:00,71.0,52.0,30.11,East,79,36.0,44.0,50,-99.99,,,-99.99,12.550000,,2013-08-24 01:42:00,
2013-08-23 20:42:00,68.0,54.0,-100.00,ENE,62,18.0,22.0,59,-99.99,,,-99.99,0.000000,,2013-08-24 02:42:00,
2013-08-23 20:52:00,69.0,53.0,-100.00,NE,55,21.0,25.0,58,-99.99,,,-99.99,0.000000,,2013-08-24 02:52:00,
2013-08-23 21:02:00,69.0,53.0,-100.00,NE,55,21.0,25.0,58,-99.99,,,-99.99,0.000000,,2013-08-24 03:02:00,
2013-08-23 21:44:00,69.0,52.0,-100.00,ENE,60,19.0,23.0,54,-99.99,,,-99.99,0.000000,,2013-08-24 03:44:00,
2013-08-23 22:44:00,69.0,53.0,30.19,ENE,66,24.0,28.0,57,-99.99,,,-99.99,0.000000,,2013-08-24 04:44:00,
2013-08-23 23:43:00,66.0,53.0,30.19,ENE,62,26.0,31.0,63,-99.99,,,-99.99,0.000000,,2013-08-24 05:43:00,